No particular awareness of the weather is required.    There are no Weather-warnings


Meteo18 Weather Cam more information Meteo18 Weather Cam


Thunder radar more information blitzortung!


Rain radar more information rain snow radar


Visit our other weather sites:

Template documentation
and downloads

And another site



Weather Underground History page Text

Daily Summary for February 7, 2018 Units:  Metric    English   Both
« Previous Day
Next Day »
Daily Weekly Monthly Yearly Custom
  High: Low: Average:
Temperature: -17.8 °C -19.1 °C -18.4 °C
Dew Point: -17.8 °C -19.6 °C -18.9 °C
Humidity: Humidity % 89 % 94 %
Wind Speed: 0 km/h 0 km/h 1.8 km/h
Wind Gust: 0 km/h - -
Wind:- - SSE
Pressure: 0 hPa 34246 hPa -
Precipitation: 0 mm    
Historical Graphs
 
 
Tabular Data for February 7, 2018
Time Temperature Dew Point Pressure Wind Wind Speed Wind Gust Humidity Rainfall Rate (Hourly)
-17.8 °C -17.8 °C 0 hPa Calm     Humidity % 0 mm
00:04 -18.5 °C -19.1 °C 34246 hPa SW 5.1 km/h 7.7 km/h 93 % 0 mm
00:08 -18.5 °C -19.1 °C 34246 hPa WSW 5.1 km/h 7.7 km/h 93 % 0 mm
00:14 -18.6 °C -19.2 °C 34246 hPa WSW 2.3 km/h 5.1 km/h 92 % 0 mm
00:20 -18.6 °C -19.1 °C 34246 hPa WSW 5.1 km/h 10.3 km/h 93 % 0 mm
00:26 -18.6 °C -19.1 °C 34246 hPa WSW 7.6 km/h 12.9 km/h 93 % 0 mm
00:32 -18.6 °C -19.1 °C 34246 hPa SW 5.1 km/h 18.2 km/h 93 % 0 mm
00:38 -18.6 °C -19.1 °C 34246 hPa SW 2.3 km/h 7.7 km/h 93 % 0 mm
00:44 -18.7 °C -19.2 °C 34256.2 hPa Calm   5.1 km/h 93 % 0 mm
00:50 -18.9 °C -19.6 °C 34256.2 hPa Calm   2.6 km/h 92 % 0 mm
00:56 -19.1 °C -19.6 °C 34256.2 hPa SSW 5.1 km/h 7.7 km/h 93 % 0 mm
01:02 -19.1 °C -19.5 °C 34246 hPa SSW 5.1 km/h 7.7 km/h 94 % 0 mm
01:08 -19 °C -19.4 °C 34246 hPa WSW 10.3 km/h 10.3 km/h 95 % 0 mm
01:14 -18.9 °C -19.3 °C 34256.2 hPa West 2.3 km/h 12.9 km/h 95 % 0 mm
01:20 -18.8 °C -19.2 °C 34256.2 hPa SW 2.3 km/h 5.1 km/h 95 % 0 mm
01:26 -18.8 °C -19.2 °C 34256.2 hPa SW 5.1 km/h 10.3 km/h 95 % 0 mm
01:32 -18.8 °C -19.2 °C 34256.2 hPa SSW 7.6 km/h 7.7 km/h 95 % 0 mm
01:38 -18.9 °C -19.3 °C 34256.2 hPa SW 10.3 km/h 10.3 km/h 94 % 0 mm
01:44 -18.9 °C -19.3 °C 34256.2 hPa SSW 5.1 km/h 7.7 km/h 95 % 0 mm
01:50 -18.9 °C -19.3 °C 34256.2 hPa SSW 5.1 km/h 7.7 km/h 95 % 0 mm
01:56 -18.9 °C -19.3 °C 34256.2 hPa SSW 2.3 km/h 5.1 km/h 95 % 0 mm
02:02 -18.8 °C -19.2 °C 34256.2 hPa SSW 5.1 km/h 5.1 km/h 95 % 0 mm
02:09 -18.8 °C -19.2 °C 34246 hPa SSW 5.1 km/h 7.7 km/h 96 % 0 mm
02:15 -18.8 °C -19.1 °C 34246 hPa WSW 7.6 km/h 12.9 km/h 96 % 0 mm
02:21 -18.7 °C -19.1 °C 34246 hPa WSW 5.1 km/h 7.7 km/h 96 % 0 mm
02:27 -18.7 °C -19 °C 34246 hPa SW 7.6 km/h 10.3 km/h 96 % 0 mm
02:33 -18.7 °C -19.1 °C 34256.2 hPa WSW 2.3 km/h 7.7 km/h 95 % 0 mm
02:39 -18.6 °C -19 °C 34246 hPa SW 7.6 km/h 12.9 km/h 95 % 0 mm
02:45 -18.6 °C -18.9 °C 34256.2 hPa WSW 5.1 km/h 7.7 km/h 95 % 0 mm
02:51 -18.6 °C -18.9 °C 34256.2 hPa SW 10.3 km/h 10.3 km/h 95 % 0 mm
02:57 -18.5 °C -18.9 °C 34256.2 hPa SW 7.6 km/h 10.3 km/h 95 % 0 mm
03:03 -18.5 °C -18.9 °C 34246 hPa WSW 5.1 km/h 10.3 km/h 95 % 0 mm
03:09 -18.5 °C -18.9 °C 34246 hPa WSW 5.1 km/h 7.7 km/h 95 % 0 mm
03:15 -18.5 °C -18.9 °C 34246 hPa SW 5.1 km/h 12.9 km/h 95 % 0 mm
03:21 -18.5 °C -18.9 °C 34246 hPa West 7.6 km/h 15.6 km/h 95 % 0 mm
03:27 -18.5 °C -18.9 °C 34246 hPa SW 2.3 km/h 5.1 km/h 95 % 0 mm
03:33 -18.5 °C -18.9 °C 34246 hPa Calm   7.7 km/h 95 % 0 mm
03:39 -18.5 °C -18.9 °C 34246 hPa West 5.1 km/h 7.7 km/h 95 % 0 mm
03:45 -18.5 °C -18.9 °C 34246 hPa SW 5.1 km/h 7.7 km/h 95 % 0 mm
03:51 -18.6 °C -18.9 °C 34246 hPa SW 5.1 km/h 7.7 km/h 95 % 0 mm
03:57 -18.6 °C -18.9 °C 34246 hPa SW 2.3 km/h 7.7 km/h 95 % 0 mm
04:03 -18.6 °C -18.9 °C 34246 hPa SW 5.1 km/h 7.7 km/h 95 % 0 mm
04:09 -18.6 °C -18.9 °C 34246 hPa SW 5.1 km/h 10.3 km/h 95 % 0 mm
04:15 -18.6 °C -18.9 °C 34246 hPa West 2.3 km/h 5.1 km/h 95 % 0 mm
04:21 -18.6 °C -18.9 °C 34246 hPa SW 2.3 km/h 7.7 km/h 95 % 0 mm
04:27 -18.6 °C -18.9 °C 34246 hPa Calm   7.7 km/h 95 % 0 mm
04:33 -18.6 °C -19 °C 34246 hPa WSW 15.6 km/h 15.6 km/h 95 % 0 mm
04:39 -18.6 °C -19.1 °C 34246 hPa WSW 5.1 km/h 10.3 km/h 94 % 0 mm
04:45 -18.7 °C -19.1 °C 34246 hPa West 2.3 km/h 10.3 km/h 94 % 0 mm
04:51 -18.7 °C -19.1 °C 34246 hPa WSW 7.6 km/h 7.7 km/h 94 % 0 mm
04:57 -18.7 °C -19.1 °C 34246 hPa West 2.3 km/h 5.1 km/h 94 % 0 mm
05:03 -18.7 °C -19.1 °C 34246 hPa WSW 2.3 km/h 5.1 km/h 94 % 0 mm
05:09 -18.7 °C -19.1 °C 34246 hPa Calm   5.1 km/h 94 % 0 mm
05:15 -18.7 °C -19.1 °C 34246 hPa WSW 5.1 km/h 7.7 km/h 94 % 0 mm
05:21 -18.7 °C -19.1 °C 34256.2 hPa WSW 2.3 km/h 5.1 km/h 94 % 0 mm
05:27 -18.7 °C -19.2 °C 34256.2 hPa WSW 2.3 km/h 5.1 km/h 94 % 0 mm
05:33 -18.7 °C -19.2 °C 34256.2 hPa SW 2.3 km/h 2.6 km/h 94 % 0 mm
05:39 -18.7 °C -19.1 °C 34256.2 hPa Calm   5.1 km/h 95 % 0 mm
05:45 -18.7 °C -19.1 °C 34256.2 hPa Calm   2.6 km/h 95 % 0 mm
05:51 -18.7 °C -19.1 °C 34256.2 hPa Calm   2.6 km/h 95 % 0 mm
05:57 -18.7 °C -19.1 °C 34256.2 hPa Calm   5.1 km/h 95 % 0 mm
06:03 -18.7 °C -19.1 °C 34256.2 hPa SW 2.3 km/h 5.1 km/h 95 % 0 mm
06:09 -18.7 °C -19.1 °C 34256.2 hPa SW 5.1 km/h 5.1 km/h 95 % 0 mm
06:15 -18.7 °C -19.1 °C 34256.2 hPa SSW 5.1 km/h 5.1 km/h 95 % 0 mm
06:21 -18.7 °C -19.1 °C 34256.2 hPa Calm   2.6 km/h 95 % 0 mm
06:27 -18.8 °C -19.2 °C 34256.2 hPa SW 2.3 km/h 2.6 km/h 95 % 0 mm
06:33 -18.8 °C -19.2 °C 34256.2 hPa Calm   2.6 km/h 95 % 0 mm
06:39 -18.8 °C -19.2 °C 34256.2 hPa Calm     95 % 0 mm
06:45 -18.8 °C -19.2 °C 34256.2 hPa Calm     95 % 0 mm
06:51 -18.8 °C -19.2 °C 34256.2 hPa Calm   2.6 km/h 95 % 0 mm
06:57 -18.8 °C -19.2 °C 34256.2 hPa Calm   2.6 km/h 95 % 0 mm
07:03 -18.8 °C -19.2 °C 34256.2 hPa SW 2.3 km/h 2.6 km/h 95 % 0 mm
07:09 -18.8 °C -19.2 °C 34256.2 hPa Calm   2.6 km/h 96 % 0 mm
07:15 -18.8 °C -19.1 °C 34256.2 hPa Calm   2.6 km/h 96 % 0 mm
07:21 -18.8 °C -19.1 °C 34269.7 hPa Calm     96 % 0 mm
07:27 -18.8 °C -19.2 °C 34269.7 hPa Calm     96 % 0 mm
07:33 -18.8 °C -19.2 °C 34269.7 hPa Calm     96 % 0 mm
07:40 -18.8 °C -19.2 °C 34269.7 hPa Calm     96 % 0 mm
07:46 -18.8 °C -19.2 °C 34269.7 hPa Calm     96 % 0 mm
07:52 -18.8 °C -19.2 °C 34269.7 hPa Calm     96 % 0 mm
07:58 -18.8 °C -19.2 °C 34269.7 hPa Calm     96 % 0 mm
08:04 -18.8 °C -19.2 °C 34279.9 hPa Calm     96 % 0 mm
08:10 -18.8 °C -19.2 °C 34279.9 hPa Calm     96 % 0 mm
08:16 -18.8 °C -19.2 °C 34279.9 hPa Calm     96 % 0 mm
08:22 -18.8 °C -19.2 °C 34293.4 hPa Calm     96 % 0 mm
08:28 -18.8 °C -19.2 °C 34279.9 hPa Calm     96 % 0 mm
08:34 -18.8 °C -19.1 °C 34293.4 hPa Calm     96 % 0 mm
08:40 -18.8 °C -19.1 °C 34293.4 hPa Calm     96 % 0 mm
08:46 -18.8 °C -19.1 °C 34293.4 hPa Calm     96 % 0 mm
08:52 -18.8 °C -19.1 °C 34293.4 hPa Calm     96 % 0 mm
08:58 -18.8 °C -19.1 °C 34293.4 hPa Calm     96 % 0 mm
09:04 -18.8 °C -19.1 °C 34293.4 hPa Calm     96 % 0 mm
09:10 -18.8 °C -19.1 °C 34303.6 hPa Calm     96 % 0 mm
09:16 -18.7 °C -19.1 °C 34303.6 hPa Calm     96 % 0 mm
09:22 -18.8 °C -19.1 °C 34303.6 hPa Calm     96 % 0 mm
09:28 -18.7 °C -19.1 °C 34313.7 hPa Calm     96 % 0 mm
09:35 -18.7 °C -19.1 °C 34313.7 hPa Calm     96 % 0 mm
09:41 -18.7 °C -19.1 °C 34313.7 hPa Calm     96 % 0 mm
09:47 -18.7 °C -19.1 °C 34313.7 hPa Calm     96 % 0 mm
09:53 -18.7 °C -19 °C 34313.7 hPa Calm     96 % 0 mm
09:59 -18.7 °C -19 °C 34327.3 hPa Calm     96 % 0 mm
10:05 -18.7 °C -19.1 °C 34327.3 hPa Calm     95 % 0 mm
10:11 -18.6 °C -19 °C 34327.3 hPa Calm     95 % 0 mm
10:17 -18.6 °C -19 °C 34327.3 hPa Calm     95 % 0 mm
10:23 -18.6 °C -18.9 °C 34327.3 hPa Calm     95 % 0 mm
10:29 -18.5 °C -18.9 °C 34337.4 hPa Calm     95 % 0 mm
10:35 -18.5 °C -18.9 °C 34337.4 hPa Calm     95 % 0 mm
10:41 -18.5 °C -18.9 °C 34337.4 hPa Calm     95 % 0 mm
10:47 -18.4 °C -18.8 °C 34337.4 hPa Calm     95 % 0 mm
10:53 -18.4 °C -18.8 °C 34337.4 hPa Calm     95 % 0 mm
10:59 -18.4 °C -18.8 °C 34347.6 hPa Calm     95 % 0 mm
11:05 -18.3 °C -18.7 °C 34347.6 hPa Calm     95 % 0 mm
11:11 -18.3 °C -18.7 °C 34347.6 hPa Calm     94 % 0 mm
11:17 -18.3 °C -18.7 °C 34347.6 hPa Calm     94 % 0 mm
11:23 -18.3 °C -18.7 °C 34347.6 hPa Calm     94 % 0 mm
11:29 -18.3 °C -18.7 °C 34347.6 hPa Calm     94 % 0 mm
11:35 -18.3 °C -18.8 °C 34361.1 hPa Calm     94 % 0 mm
11:42 -18.3 °C -18.7 °C 34361.1 hPa Calm     94 % 0 mm
11:48 -18.2 °C -18.7 °C 34361.1 hPa Calm     94 % 0 mm
11:54 -18.2 °C -18.7 °C 34361.1 hPa Calm     94 % 0 mm
12:00 -18.2 °C -18.7 °C 34371.3 hPa Calm     94 % 0 mm
12:06 -18.2 °C -18.6 °C 34371.3 hPa Calm     94 % 0 mm
12:12 -18.2 °C -18.7 °C 34371.3 hPa Calm     93 % 0 mm
12:18 -18.2 °C -18.7 °C 34371.3 hPa Calm     93 % 0 mm
12:24 -18.1 °C -18.7 °C 34371.3 hPa Calm     92 % 0 mm
12:30 -18.1 °C -18.7 °C 34371.3 hPa Calm     92 % 0 mm
12:36 -18.2 °C -18.8 °C 34371.3 hPa Calm     92 % 0 mm
12:42 -18.2 °C -18.8 °C 34371.3 hPa Calm     92 % 0 mm
12:48 -18.2 °C -18.8 °C 34371.3 hPa Calm     92 % 0 mm
12:54 -18.2 °C -18.8 °C 34371.3 hPa Calm     92 % 0 mm
13:00 -18.2 °C -18.8 °C 34371.3 hPa Calm   2.6 km/h 92 % 0 mm
13:06 -18.2 °C -18.8 °C 34371.3 hPa Calm   2.6 km/h 92 % 0 mm
13:12 -18.2 °C -18.8 °C 34371.3 hPa WNW 2.3 km/h 2.6 km/h 92 % 0 mm
13:18 -18.1 °C -18.7 °C 34371.3 hPa Calm   2.6 km/h 92 % 0 mm
13:24 -18.1 °C -18.7 °C 34371.3 hPa Calm     92 % 0 mm
13:31 -18 °C -18.6 °C 34371.3 hPa WNW 2.3 km/h 2.6 km/h 92 % 0 mm
13:37 -18.1 °C -18.8 °C 34371.3 hPa WNW 2.3 km/h 2.6 km/h 91 % 0 mm
13:43 -18.1 °C -18.8 °C 34371.3 hPa Calm   2.6 km/h 91 % 0 mm
13:49 -18 °C -18.6 °C 34371.3 hPa Calm   5.1 km/h 92 % 0 mm
13:55 -18 °C -18.6 °C 34371.3 hPa Calm   2.6 km/h 92 % 0 mm
14:01 -17.9 °C -18.6 °C 34384.8 hPa Calm   2.6 km/h 92 % 0 mm
14:07 -17.9 °C -18.7 °C 34384.8 hPa North 2.3 km/h 5.1 km/h 91 % 0 mm
14:13 -18 °C -18.7 °C 34384.8 hPa Calm   5.1 km/h 91 % 0 mm
14:19 -17.9 °C -18.7 °C 34371.3 hPa North 2.3 km/h 5.1 km/h 91 % 0 mm
14:25 -17.9 °C -18.7 °C 34384.8 hPa North 2.3 km/h 5.1 km/h 91 % 0 mm
14:31 -17.9 °C -18.7 °C 34384.8 hPa Calm   2.6 km/h 91 % 0 mm
14:37 -17.9 °C -18.6 °C 34384.8 hPa Calm   2.6 km/h 91 % 0 mm
14:43 -17.9 °C -18.6 °C 34384.8 hPa Calm   2.6 km/h 91 % 0 mm
14:49 -17.8 °C -18.6 °C 34384.8 hPa Calm     91 % 0 mm
14:55 -17.7 °C -18.4 °C 34384.8 hPa North 5.1 km/h 7.7 km/h 91 % 0 mm
15:01 -17.8 °C -18.7 °C 34384.8 hPa Calm   5.1 km/h 89 % 0 mm
15:07 -17.9 °C -18.8 °C 34384.8 hPa North 5.1 km/h 5.1 km/h 89 % 0 mm
15:13 -17.9 °C -18.7 °C 34395 hPa Calm   5.1 km/h 90 % 0 mm
15:19 -17.9 °C -18.7 °C 34384.8 hPa NNE 2.3 km/h 2.6 km/h 90 % 0 mm
15:25 -17.9 °C -18.7 °C 34395 hPa Calm   2.6 km/h 90 % 0 mm
15:31 -17.9 °C -18.7 °C 34395 hPa NNE 2.3 km/h 5.1 km/h 90 % 0 mm
15:37 -17.9 °C -18.7 °C 34395 hPa Calm   5.1 km/h 90 % 0 mm
15:43 -17.9 °C -18.7 °C 34395 hPa NNE 2.3 km/h 7.7 km/h 90 % 0 mm
15:49 -17.9 °C -18.7 °C 34395 hPa NNE 2.3 km/h 7.7 km/h 90 % 0 mm
15:55 -18 °C -18.8 °C 34395 hPa NNE 2.3 km/h 7.7 km/h 90 % 0 mm
16:01 -18 °C -18.7 °C 34405.1 hPa NNE 2.3 km/h 7.7 km/h 91 % 0 mm
16:07 -18 °C -18.7 °C 34405.1 hPa Calm   10.3 km/h 91 % 0 mm
16:13 -18.1 °C -18.7 °C 34405.1 hPa North 10.3 km/h 12.9 km/h 92 % 0 mm
16:19 -18.2 °C -18.8 °C 34405.1 hPa North 2.3 km/h 7.7 km/h 92 % 0 mm
16:25 -18.2 °C -18.7 °C 34405.1 hPa North 5.1 km/h 7.7 km/h 93 % 0 mm
16:31 -18.2 °C -18.7 °C 34405.1 hPa Calm   5.1 km/h 93 % 0 mm
16:37 -18.2 °C -18.8 °C 34405.1 hPa Calm   7.7 km/h 93 % 0 mm
16:43 -18.2 °C -18.7 °C 34418.7 hPa North 2.3 km/h 10.3 km/h 94 % 0 mm
16:49 -18.2 °C -18.7 °C 34418.7 hPa North 7.6 km/h 10.3 km/h 94 % 0 mm
16:55 -18.2 °C -18.7 °C 34418.7 hPa North 2.3 km/h 5.1 km/h 94 % 0 mm
17:01 -18.2 °C -18.7 °C 34418.7 hPa North 2.3 km/h 5.1 km/h 94 % 0 mm
17:07 -18.2 °C -18.7 °C 34418.7 hPa Calm   5.1 km/h 94 % 0 mm
17:13 -18.3 °C -18.7 °C 34418.7 hPa Calm   5.1 km/h 94 % 0 mm
17:19 -18.3 °C -18.8 °C 34428.8 hPa Calm   5.1 km/h 94 % 0 mm
17:25 -18.4 °C -18.8 °C 34428.8 hPa Calm   5.1 km/h 94 % 0 mm
17:31 -18.4 °C -18.8 °C 34428.8 hPa North 2.3 km/h 5.1 km/h 94 % 0 mm
17:37 -18.4 °C -18.8 °C 34428.8 hPa Calm   2.6 km/h 95 % 0 mm
17:43 -18.4 °C -18.8 °C 34428.8 hPa Calm   2.6 km/h 95 % 0 mm
17:49 -18.4 °C -18.8 °C 34428.8 hPa Calm   2.6 km/h 95 % 0 mm
17:55 -18.4 °C -18.8 °C 34442.4 hPa Calm   2.6 km/h 95 % 0 mm
18:01 -18.4 °C -18.8 °C 34442.4 hPa Calm   2.6 km/h 95 % 0 mm
18:07 -18.4 °C -18.8 °C 34442.4 hPa Calm   2.6 km/h 95 % 0 mm
18:13 -18.4 °C -18.8 °C 34442.4 hPa Calm   2.6 km/h 95 % 0 mm
18:20 -18.4 °C -18.8 °C 34442.4 hPa Calm   2.6 km/h 95 % 0 mm
18:26 -18.4 °C -18.8 °C 34442.4 hPa Calm     96 % 0 mm
18:32 -18.4 °C -18.8 °C 34452.6 hPa Calm   2.6 km/h 96 % 0 mm
18:38 -18.4 °C -18.8 °C 34452.6 hPa Calm     96 % 0 mm
18:44 -18.4 °C -18.8 °C 34452.6 hPa Calm     96 % 0 mm
18:50 -18.4 °C -18.8 °C 34452.6 hPa Calm     96 % 0 mm
18:56 -18.4 °C -18.8 °C 34452.6 hPa Calm     96 % 0 mm
19:02 -18.5 °C -18.8 °C 34452.6 hPa Calm     96 % 0 mm
19:04 -18.4 °C -18.8 °C 34452.6 hPa Calm     96 % 0 mm
19:10 -18.5 °C -18.8 °C 34452.6 hPa Calm     96 % 0 mm
19:16 -18.5 °C -18.8 °C 34452.6 hPa Calm     96 % 0 mm
19:22 -18.5 °C -18.8 °C 34452.6 hPa Calm     96 % 0 mm
19:28 -18.5 °C -18.8 °C 34462.7 hPa Calm     96 % 0 mm
19:34 -18.5 °C -18.8 °C 34462.7 hPa Calm     96 % 0 mm
19:40 -18.5 °C -18.8 °C 34462.7 hPa Calm     96 % 0 mm
19:46 -18.5 °C -18.8 °C 34462.7 hPa Calm     96 % 0 mm
19:52 -18.5 °C -18.8 °C 34462.7 hPa Calm     96 % 0 mm
19:59 -18.5 °C -18.8 °C 34462.7 hPa Calm     96 % 0 mm
20:05 -18.5 °C -18.8 °C 34462.7 hPa Calm   2.6 km/h 96 % 0 mm
20:11 -18.4 °C -18.8 °C 34476.3 hPa Calm   2.6 km/h 96 % 0 mm
20:17 -18.4 °C -18.8 °C 34476.3 hPa Calm     96 % 0 mm
20:23 -18.4 °C -18.8 °C 34476.3 hPa Calm   2.6 km/h 96 % 0 mm
20:29 -18.4 °C -18.7 °C 34476.3 hPa Calm   2.6 km/h 96 % 0 mm
20:35 -18.4 °C -18.7 °C 34476.3 hPa Calm   2.6 km/h 96 % 0 mm
20:41 -18.4 °C -18.7 °C 34476.3 hPa Calm   2.6 km/h 96 % 0 mm
20:47 -18.3 °C -18.7 °C 34486.4 hPa North 2.3 km/h 10.3 km/h 96 % 0 mm
20:53 -18.3 °C -18.6 °C 34486.4 hPa Calm   7.7 km/h 96 % 0 mm
20:59 -18.3 °C -18.6 °C 34486.4 hPa North 2.3 km/h 7.7 km/h 96 % 0 mm
21:05 -18.3 °C -18.6 °C 34496.6 hPa North 7.6 km/h 10.3 km/h 96 % 0 mm
21:11 -18.3 °C -18.7 °C 34496.6 hPa North 2.3 km/h 12.9 km/h 95 % 0 mm
21:17 -18.3 °C -18.7 °C 34496.6 hPa North 2.3 km/h 7.7 km/h 95 % 0 mm
21:23 -18.3 °C -18.7 °C 34496.6 hPa North 5.1 km/h 10.3 km/h 95 % 0 mm
21:29 -18.4 °C -18.8 °C 34496.6 hPa North 7.6 km/h 10.3 km/h 95 % 0 mm
21:35 -18.4 °C -18.8 °C 34496.6 hPa North 2.3 km/h 10.3 km/h 95 % 0 mm
21:41 -18.4 °C -18.8 °C 34496.6 hPa Calm   5.1 km/h 95 % 0 mm
21:47 -18.4 °C -18.8 °C 34496.6 hPa North 2.3 km/h 5.1 km/h 95 % 0 mm
21:53 -18.4 °C -18.8 °C 34496.6 hPa North 2.3 km/h 5.1 km/h 95 % 0 mm
21:59 -18.4 °C -18.8 °C 34496.6 hPa North 5.1 km/h 7.7 km/h 95 % 0 mm
22:05 -18.4 °C -18.8 °C 34496.6 hPa Calm   10.3 km/h 95 % 0 mm
22:11 -18.4 °C -18.8 °C 34496.6 hPa North 5.1 km/h 5.1 km/h 95 % 0 mm
22:19 -18.4 °C -18.8 °C 34496.6 hPa Calm   7.7 km/h 95 % 0 mm
22:26 -18.5 °C -18.9 °C 34496.6 hPa Calm   7.7 km/h 95 % 0 mm
22:31 -18.5 °C -18.9 °C 34496.6 hPa Calm   7.7 km/h 95 % 0 mm
22:38 -18.5 °C -18.9 °C 34496.6 hPa Calm   7.7 km/h 95 % 0 mm
22:44 -18.5 °C -18.9 °C 34496.6 hPa North 5.1 km/h 7.7 km/h 95 % 0 mm
22:50 -18.5 °C -18.9 °C 34496.6 hPa Calm   2.6 km/h 95 % 0 mm
22:56 -18.5 °C -18.9 °C 34496.6 hPa Calm   5.1 km/h 95 % 0 mm
23:02 -18.5 °C -18.9 °C 34496.6 hPa North 2.3 km/h 5.1 km/h 95 % 0 mm
23:08 -18.5 °C -18.9 °C 34496.6 hPa Calm   7.7 km/h 95 % 0 mm
23:14 -18.6 °C -18.9 °C 34496.6 hPa North 7.6 km/h 15.6 km/h 95 % 0 mm
23:20 -18.6 °C -18.9 °C 34496.6 hPa North 5.1 km/h 12.9 km/h 95 % 0 mm
23:26 -18.6 °C -18.9 °C 34496.6 hPa Calm   10.3 km/h 95 % 0 mm
23:32 -18.6 °C -18.9 °C 34510.1 hPa North 5.1 km/h 10.3 km/h 95 % 0 mm
23:38 -18.6 °C -18.9 °C 34510.1 hPa Calm   7.7 km/h 95 % 0 mm
23:44 -18.6 °C -18.9 °C 34510.1 hPa North 2.3 km/h 7.7 km/h 95 % 0 mm
23:50 -18.6 °C -18.9 °C 34510.1 hPa Calm   5.1 km/h 95 % 0 mm
23:56 -18.6 °C -19 °C 34510.1 hPa North 2.3 km/h 7.7 km/h 95 % 0 mm
Meteo18
Compliments of Weather Underground - 4 mb

Script developed by  Jim McMurry - jmcmurry@mwt.net Adapted for the template by  Wim van der Kuil - Leuven-Template.eu

You find our weather info also at:

European Weather Network

Weather Underground

Equipment we use:

Weather-station
Davis Vue

Weather-program
Meteobridge

Weather-server
Raspberry PI 2 B+

Provider
1 and 1

Davis Vue

Meteobridge

Raspberry PI 2 B+

1 and 1